TimeEDT,TemperatureF,Dew PointF,Humidity,Sea Level PressureIn,VisibilityMPH,Wind Direction,Wind SpeedMPH,Gust SpeedMPH,PrecipitationIn,Events,Conditions,WindDirDegrees,DateUTC
12:51 AM,70.9,61.9,73,30.69,10.0,NNW,6.9,-,N/A,,Partly Cloudy,340,2013-07-12 04:51:00
1:51 AM,68.9,61.9,78,30.70,10.0,NNW,5.8,-,N/A,,Clear,330,2013-07-12 05:51:00
2:51 AM,66.9,61.9,84,30.71,10.0,NW,3.5,-,N/A,,Clear,320,2013-07-12 06:51:00
3:51 AM,65.8,61.9,87,30.74,10.0,Calm,Calm,-,N/A,,Clear,0,2013-07-12 07:51:00
4:51 AM,65.8,61.0,84,30.76,10.0,Calm,Calm,-,N/A,,Partly Cloudy,0,2013-07-12 08:51:00
5:51 AM,66.9,59.9,78,30.78,10.0,Calm,Calm,-,N/A,,Mostly Cloudy,0,2013-07-12 09:51:00
6:51 AM,70.0,59.0,68,30.80,10.0,Calm,Calm,-,N/A,,Mostly Cloudy,0,2013-07-12 10:51:00
7:51 AM,68.9,59.0,71,30.82,10.0,North,3.5,-,N/A,,Mostly Cloudy,360,2013-07-12 11:51:00
8:51 AM,72.0,59.0,64,30.84,10.0,North,8.1,-,N/A,,Mostly Cloudy,10,2013-07-12 12:51:00
9:51 AM,72.9,59.0,62,30.84,10.0,NNE,5.8,-,N/A,,Mostly Cloudy,30,2013-07-12 13:51:00
10:51 AM,75.9,57.9,54,30.86,10.0,NE,9.2,-,N/A,,Clear,40,2013-07-12 14:51:00
11:51 AM,77.0,59.0,54,30.86,10.0,ENE,6.9,-,N/A,,Scattered Clouds,70,2013-07-12 15:51:00
12:51 PM,77.9,55.9,47,30.87,10.0,East,12.7,17.3,N/A,,Partly Cloudy,80,2013-07-12 16:51:00
1:51 PM,79.0,52.9,40,30.87,10.0,East,12.7,-,N/A,,Clear,90,2013-07-12 17:51:00
2:51 PM,77.9,52.9,42,30.87,10.0,East,9.2,19.6,N/A,,Scattered Clouds,100,2013-07-12 18:51:00
3:51 PM,79.0,52.9,40,30.87,10.0,SE,12.7,18.4,N/A,,Scattered Clouds,130,2013-07-12 19:51:00
4:51 PM,77.9,54.0,43,30.87,10.0,ENE,6.9,-,N/A,,Clear,60,2013-07-12 20:51:00
5:51 PM,77.9,52.9,42,30.87,10.0,East,9.2,-,N/A,,Scattered Clouds,80,2013-07-12 21:51:00
6:51 PM,75.9,52.9,45,30.88,10.0,East,9.2,-,N/A,,Scattered Clouds,100,2013-07-12 22:51:00
7:51 PM,73.9,55.9,53,30.89,10.0,Variable,4.6,-,N/A,,Scattered Clouds,0,2013-07-12 23:51:00
8:51 PM,72.0,54.9,55,30.91,10.0,SE,3.5,-,N/A,,Clear,130,2013-07-13 00:51:00
9:51 PM,70.9,54.9,57,30.92,10.0,Calm,Calm,-,N/A,,Clear,0,2013-07-13 01:51:00
10:51 PM,68.9,56.8,65,30.94,10.0,Calm,Calm,-,N/A,,Clear,0,2013-07-13 02:51:00
11:51 PM,68.0,57.9,70,30.95,10.0,Calm,Calm,-,N/A,,Clear,0,2013-07-13 03:51:00